Regional Weather Roundup
Issued by NWS

Home | Current Version | Previous Version | Graphics & Text | Print | Product List | Glossary On
Versions: 1 2 3 4 5 6 7 8 9 10 11 12 13 14 15 16 17 18 19 20 21 22 23 24 25 26 27 28 29 30 31 32 33 34 35 36 37 38 39 40 41 42 43 44 45 46 47 48 49 50
000
ASUS43 KMKX 010210
RWRWI

WISCONSIN REGIONAL WEATHER ROUNDUP
NATIONAL WEATHER SERVICE MILWAUKEE/SULLIVAN WI
800 PM CST SAT FEB 28 2015

NOTE: "FAIR" INDICATES FEW OR NO CLOUDS BELOW 12,000 FEET WITH NO
SIGNIFICANT WEATHER AND/OR OBSTRUCTIONS TO VISIBILITY.

WIZ001-002-006>008-014>016-023>028-010300-
NORTHWEST WISCONSIN

CITY           SKY/WX    TMP DP  RH WIND       PRES   REMARKS
SUPERIOR ARPT  CLOUDY    17   4  56 SW13G18   30.31S WCI   4
ASHLAND        MOCLDY    15  -2  46 S10       30.32F WCI   2
HAYWARD        MOCLDY    13  -2  51 S14       30.31F WCI  -2
SIREN          PTCLDY    14   1  56 SW13G20   30.33F WCI   0
CUMBERLAND     MOCLDY    10   0  61 S9        30.33S WCI  -2
RICE LAKE      CLOUDY    13   1  58 S7        30.35F WCI   3
CHETEK         CLOUDY    14   0  55 S6        30.35F WCI   5
LADYSMITH      CLOUDY    13  -1  54 S7        30.36F WCI   3
EAU CLAIRE     CLOUDY    15  -2  46 S9        30.38F WCI   3
MENOMONIE      CLOUDY    15  -1  49 S8        30.38F WCI   4
NEW RICHMOND   PTCLDY    10   2  68 S6        30.36F WCI   1
OSCEOLA        PTCLDY    12   3  66 S6        30.39S WCI   3
$$

WIZ003>005-009-010-017-018-010300-
NORTH CENTRAL WISCONSIN

CITY           SKY/WX    TMP DP  RH WIND       PRES   REMARKS
MANITOWISH WTR CLOUDY    10  -5  50 S9        30.29F WCI  -2
ARBOR VITAE    CLEAR     11  -2  54 CALM      30.31F
WOODRUFF       CLEAR     11  -2  54 CALM      30.31F
RHINELANDER    MOCLDY     9  -6  50 S6        30.32F WCI  -1
EAGLE RIVER    CLEAR     10  -7  45 CALM      30.30F
LAND O LAKES   PTCLDY    12  -5  47 S6        30.30F WCI   2
PHILLIPS       CLOUDY     9  -5  53 S5        30.31F WCI   1
TOMAHAWK       CLOUDY    10  -5  51 CALM      30.34F
MEDFORD        CLOUDY    11  -4  51 S6        30.34F WCI   1
MERRILL        CLOUDY    13  -3  47 S8        30.36F WCI   2
$$

WIZ029-030-035-036-043>047-010300-
CENTRAL WISCONSIN

CITY           SKY/WX    TMP DP  RH WIND       PRES   REMARKS
WAUSAU         CLOUDY    13  -4  46 S7        30.37F WCI   3
MOSINEE        CLOUDY    12  -2  52 S8        30.39F WCI   1
MARSHFIELD     CLOUDY    15  -1  49 S8        30.37F WCI   4
STEVENS POINT  CLOUDY    13  -2  51 S6        30.41F WCI   4
WAUPACA        CLOUDY    16   1  52 S6        30.45F WCI   7
WAUTOMA        CLOUDY    15   0  51 S6        30.46F WCI   6
WISC RAPIDS    CLOUDY    15  -5  40 S8        30.42F WCI   4
CAMP DOUGLAS   CLOUDY    15  -1  48 S8        30.42F WCI   4
$$

WIZ011>013-019>022-031-037>040-048>050-010300-
NORTHEAST WISCONSIN

CITY           SKY/WX    TMP DP  RH WIND       PRES   REMARKS
ANTIGO         CLOUDY     8  -3  59 S9        30.36F WCI  -5
SHAWANO        PTCLDY    15   1  53 S3        30.45F
OCONTO         CLEAR     14  -1  52 SW5       30.47F WCI   6
STURGEON BAY   CLEAR     12   3  67 S8        30.48F WCI   1
GREEN BAY      PTCLDY    13   1  59 S6        30.47F WCI   4
MANITOWOC      MOCLDY    16   7  67 SW9       30.49F WCI   4
APPLETON       MOCLDY    12   0  57 SW6       30.46F WCI   3
CLINTONVILLE   MOCLDY    14   1  57 S9        30.45F WCI   2
OSHKOSH        CLOUDY    13   2  61 S8        30.47F WCI   2
$$

WIZ032>034-041-042-053>061-010300-
SOUTHWEST WISCONSIN

CITY           SKY/WX    TMP DP  RH WIND       PRES   REMARKS
LA CROSSE      CLOUDY    18   2  49 S10       30.44F WCI   6
SPARTA         CLOUDY    16  -1  47 S5        30.44S WCI   9
VIROQUA        CLOUDY    13   3  63 S9        30.39F WCI   1
BOSCOBEL       PTCLDY    13   1  59 CALM      30.48F
PRAIRIE DU CHI MOCLDY    13  -3  48 E6        30.46F WCI   4
PLATTEVILLE    PTCLDY    11   2  66 E6        30.45S WCI   2
$$

WIZ056-057-062-063-064-067-068-010300-
SOUTH CENTRAL WISCONSIN

CITY           SKY/WX    TMP DP  RH WIND       PRES   REMARKS
REEDSBURG      CLOUDY    14   1  55 S6        30.44F WCI   5
BARABOO/DELLS  CLOUDY    13   2  60 S10       30.44F WCI   0
LONE ROCK      PTCLDY    12  -2  53 SE3       30.47F
MINERAL POINT  PTCLDY    14   1  57 SE8       30.43F WCI   3
MADISON        MOCLDY    15  -1  49 S6        30.47F WCI   6
MIDDLETON      MOCLDY    14   1  55 CALM      30.46F
WATERTOWN      CLOUDY    14   1  57 CALM      30.48F
MONROE         CLOUDY    14   9  79 S7        30.45F WCI   4
JANESVILLE     CLOUDY    18   3  53 S6        30.49F WCI   9
$$

WIZ051-052-058>065-066-070>072-010300-
SOUTHEAST WISCONSIN

CITY           SKY/WX    TMP DP  RH WIND       PRES   REMARKS
MILWAUKEE      CLOUDY    18   7  62 S7        30.51F WCI   9
WAUKESHA       CLOUDY    16   1  53 S8        30.50S WCI   5
MILWAUKEE/TIMM MOCLDY    18   5  57 S7        30.51F WCI   8
RACINE         CLOUDY    20   8  60 S7        30.53F WCI  11
BURLINGTON     CLOUDY    15   2  57 CALM      30.50F
KENOSHA        CLOUDY    20  10  65 S8        30.51F WCI  10
FOND DU LAC    CLOUDY    15   0  51 S7        30.47F WCI   5
SHEBOYGAN      CLOUDY    15   6  67 S7        30.49F WCI   5
WEST BEND      CLOUDY    18   0  45 S5        30.48S WCI  11
JUNEAU         MOCLDY    14   1  56 S7        30.48F WCI   3
$$

LSZ147-162-010300-
LAKE SUPERIOR

STATION/POSITION TIME  TEMP    WIND        PRES    WAVE
                       AIR SEA DIR/SP/G            HT/PER
                 (UTC) (F)     (DEG/KT/KT) (MB)    (FT/S)
DEVILS ISLAND    0200   18     190/  9/ 11 1027.7S
PORT WING        0140   17     190/ 11/ 19 1026.4S
SAXON HARBOR     0100   19     200/  6/ 12 1027.1
$$

LMZ867-665-643>646-010300-
LAKE MICHIGAN

STATION/POSITION TIME  TEMP    WIND        PRES    WAVE
                       AIR SEA DIR/SP/G            HT/PER
                 (UTC) (F)     (DEG/KT/KT) (MB)    (FT/S)
NORTHPORT PIER   0201   14     220/  1/  7 1031.5F
SISTER BAY       0113   14        CALM       N/A
KEWAUNEE LAKESHO 0100   18     210/ 12/ 14 1031.8F
SHEBOYGAN LAKESH 0200   19     210/ 12/ 13 1034.3F
PORT WASHINGTON  0100   19     220/  4/  7 1033.9
MILWAUKEE LAKESH 0100   19     210/  7/  7   N/A
KENOSHA   LAKESH 0200   21     210/ 12/ 21 1033.2F
$$

TC  - TEMPERATURE IN CELSIUS
VSB - VISIBILITY IN STATUTE MILES
WCI - WIND CHILL INDEX
HX  - HEAT INDEX



USA.gov is the U.S. government's official web portal to all federal, state and local government web resources and services.